EW3533 Weather Reports


time (UTC)temp
C
wind
direction
speed
KPH
gust
KPH
rain 1hr
cm
rain 24hr
cm
rain mn
cm
humidity
%
barometer
mb
20260507141542 8 178 3.2 8.0 0.00 0.00 0.00 59 1012.7
20260507140044 8 355 0.0 6.4 0.00 0.00 0.00 58 1012.8
20260507134542 7 32 1.6 6.4 0.00 0.00 0.00 60 1012.7
20260507133036 7 32 3.2 8.0 0.00 0.00 0.00 64 1012.7
20260507131551 7 59 3.2 8.0 0.00 0.00 0.00 66 1012.8
20260507130034 7 78 1.6 6.4 0.00 0.00 0.00 72 1012.8
20260507124534 6 141 0.0 4.8 0.00 0.00 0.00 75 1012.7
20260507123035 6 141 0.0 3.2 0.00 0.00 0.00 80 1012.7
20260507121532 5 140 0.0 3.2 0.00 0.00 0.00 81 1012.7
20260507120039 4 141 3.2 6.4 0.00 0.00 0.00 83 1012.6
20260507114532 3 269 0.0 3.2 0.00 0.00 0.00 85 1012.5
20260507113029 3 269 0.0 1.6 0.00 0.00 0.00 85 1012.6
20260507111525 3 269 1.6 3.2 0.00 0.00 0.00 85 1012.5
20260507110023 3 269 0.0 3.2 0.00 0.00 0.00 85 1012.4
20260507104623 3 269 0.0 1.6 0.00 0.00 0.00 85 1012.3
20260507103022 3 265 0.0 3.2 0.00 0.00 0.00 84 1012.2
20260507101522 3 276 0.0 0.0 0.00 0.00 0.00 84 1012.1
20260507100030 3 276 0.0 1.6 0.00 0.00 0.00 84 1012.3
20260507094522 3 222 0.0 0.0 0.00 0.00 0.00 84 1012.2
20260507093020 3 222 0.0 1.6 0.00 0.00 0.00 84 1012.2
20260507091520 3 222 0.0 3.2 0.00 0.00 0.00 84 1012.1
20260507090022 3 222 1.6 3.2 0.00 0.00 0.00 85 1012.3
20260507084518 3 222 0.0 1.6 0.00 0.00 0.00 85 1012.3
20260507083017 3 222 0.0 4.8 0.00 0.00 0.00 85 1012.2
20260507081532 3 299 0.0 3.2 0.00 0.00 0.00 84 1012.3
20260507080012 3 299 1.6 4.8 0.00 0.00 0.00 83 1012.3
20260507074523 3 299 0.0 3.2 0.00 0.00 0.00 84 1012.4
20260507073010 3 298 0.0 3.2 0.00 0.00 0.00 84 1012.4
20260507071508 3 298 0.0 4.8 0.00 0.00 0.00 82 1012.4
20260507070010 3 298 0.0 4.8 0.00 0.00 0.00 81 1012.5
20260507064506 3 298 0.0 1.6 0.00 0.00 0.00 80 1012.5
20260507063100 3 298 0.0 3.2 0.00 0.00 0.00 80 1012.5
20260507061556 3 298 0.0 3.2 0.00 0.00 0.00 78 1012.6
20260507060059 4 29 0.0 3.2 0.00 0.00 0.00 77 1012.6
20260507054633 5 29 0.0 4.8 0.00 0.00 0.00 75 1012.6
20260507053052 5 122 0.0 1.6 0.00 0.00 0.00 74 1012.6
20260507051548 5 122 0.0 3.2 0.00 0.00 0.00 75 1012.4
20260507050053 5 122 0.0 3.2 0.00 0.00 0.00 74 1012.5
20260507044549 5 122 1.6 4.8 0.00 0.00 0.00 72 1012.5
20260507043039 6 122 4.8 6.4 0.00 0.00 0.00 71 1012.6
20260507041540 6 121 4.8 9.7 0.00 0.00 0.00 68 1012.6
20260507040035 7 91 1.6 4.8 0.00 0.00 0.00 64 1012.6
20260507034532 8 90 1.6 9.7 0.00 0.00 0.00 61 1012.8
20260507033031 8 304 0.0 9.7 0.00 0.00 0.00 56 1012.8
20260507031530 8 270 4.8 12.9 0.00 0.00 0.00 56 1013.0
20260507030030 8 309 1.6 8.0 0.00 0.00 0.00 61 1013.0
20260507024532 8 285 0.0 6.4 0.00 0.00 0.00 59 1012.8
20260507023029 9 331 8.0 14.5 0.00 0.00 0.00 57 1012.6
20260507021527 10 287 11.3 19.3 0.00 0.00 0.00 50 1012.5
20260507020027 10 295 14.5 27.4 0.00 0.00 0.00 49 1012.4
20260507014541 10 274 3.2 6.4 0.00 0.00 0.00 47 1012.1
20260507013026 10 263 6.4 16.1 0.00 0.00 0.00 44 1012.0
20260507011528 10 264 4.8 16.1 0.00 0.00 0.00 48 1011.8
20260507010027 10 242 3.2 6.4 0.00 0.00 0.00 48 1011.7
20260507004525 10 242 3.2 6.4 0.00 0.00 0.00 47 1011.8
20260507003024 10 242 3.2 8.0 0.00 0.00 0.00 47 1011.5
20260507001527 10 234 3.2 6.4 0.00 0.00 0.00 47 1011.5
20260507000032 10 231 4.8 9.7 0.00 0.00 0.00 45 1011.4
20260506234523 11 252 0.0 11.3 0.00 0.00 0.00 46 1011.5
20260506233022 11 265 1.6 12.9 0.00 0.00 0.00 46 1011.5
20260506231521 11 246 4.8 14.5 0.00 0.00 0.00 44 1011.4
20260506230021 11 250 4.8 16.1 0.00 0.00 0.00 44 1011.5
20260506224521 11 234 8.0 16.1 0.00 0.00 0.00 44 1011.6
20260506223020 11 259 6.4 19.3 0.00 0.00 0.00 44 1011.7
20260506221520 11 273 11.3 19.3 0.00 0.00 0.00 44 1011.7
20260506220023 11 269 6.4 19.3 0.00 0.00 0.00 44 1011.6
20260506214518 11 244 11.3 25.7 0.00 0.00 0.00 44 1011.5
20260506213017 11 275 11.3 22.5 0.00 0.00 0.00 43 1011.6
20260506211518 11 242 14.5 25.7 0.00 0.00 0.00 43 1011.6
20260506210015 11 242 8.0 20.9 0.00 0.00 0.00 45 1011.5
20260506204520 11 257 12.9 24.1 0.00 0.00 0.00 42 1011.6
20260506203012 11 263 8.0 17.7 0.00 0.00 0.00 45 1011.6
20260506201511 11 307 3.2 17.7 0.00 0.00 0.00 45 1011.7
20260506200007 10 277 8.0 17.7 0.00 0.00 0.00 46 1011.9
20260506194512 10 249 4.8 14.5 0.00 0.00 0.00 49 1012.0
20260506193004 10 345 3.2 20.9 0.00 0.00 0.00 47 1012.1
20260506191503 10 258 6.4 20.9 0.00 0.00 0.00 47 1012.1
20260506190002 10 227 11.3 27.4 0.00 0.00 0.00 46 1012.2
20260506184600 10 258 9.7 24.1 0.00 0.00 0.00 47 1012.3
20260506183059 10 298 6.4 16.1 0.00 0.00 0.00 49 1012.4
20260506181558 10 287 4.8 16.1 0.00 0.00 0.00 48 1012.3
20260506180105 9 284 1.6 14.5 0.00 0.00 0.00 50 1012.4
20260506174556 9 18 6.4 16.1 0.00 0.00 0.00 49 1012.6
20260506173058 9 360 9.7 17.7 0.00 0.00 0.00 49 1012.6
20260506171558 9 340 8.0 17.7 0.00 0.00 0.00 49 1012.5
20260506170104 9 334 4.8 14.5 0.00 0.00 0.00 53 1012.7
20260506164553 9 347 6.4 16.1 0.00 0.00 0.00 51 1012.8
20260506163107 8 243 3.2 12.9 0.00 0.00 0.00 55 1013.0
20260506161545 8 351 9.7 16.1 0.00 0.00 0.00 60 1013.0
20260506160042 8 274 4.8 12.9 0.00 0.00 0.00 61 1012.9
20260506154602 8 268 9.7 16.1 0.00 0.00 0.00 63 1013.1
20260506153049 7 5 9.7 14.5 0.00 0.00 0.00 62 1013.0
20260506151536 7 5 6.4 17.7 0.00 0.00 0.00 64 1013.0
20260506150034 7 322 6.4 16.1 0.00 0.00 0.00 64 1013.0
20260506144531 7 333 9.7 19.3 0.00 0.00 0.00 64 1012.9
20260506143035 7 41 11.3 22.5 0.00 0.00 0.00 63 1012.5